• Join FlightAware (Why Join?)
  • Login
  • US Flag 
02:08PM EST


 

Airport Tracker/Info


-or-


 

Live Flight TrackerFlight Track Log ✈ GGN7280 ✈ 03-Jun-2013 ✈ CYYZ - KALB

Flight Track Log - Related Links

Times and Time Zones

All times are in EDT time to prevent confusion due to time zone crossing. See the GGN7280 flight status page for this flight to view local times or setup timezone preferences in your user account.

Time Position Orientation Groundspeed Altitude Reporting Facility
EDT Latitude Longitude Course Direction KTS MPH feet Rate Location/Type
09:47AM 43.6667 -79.5833 206° Southwest 20 23 700  Level Toronto Center
09:48AM 43.6167 -79.6167 206° Southwest 170 196 2,300 1,560 Climbing Toronto Center
09:49AM 43.5833 -79.5667 133° Southeast 180 207 3,900 1,260 Climbing Toronto Center
09:50AM 43.5667 -79.5000 109° East 220 253 4,900 660 Climbing Toronto Center
09:51AM 43.5500 -79.4000 103° East 250 288 5,300 900 Climbing Toronto Center
09:52AM 43.5333 -79.3167 105° East 240 276 6,800 1,260 Climbing Toronto Center
09:53AM 43.5167 -79.2167 103° East 240 276 7,900 1,020 Climbing Toronto Center
09:54AM 43.5000 -79.1333 105° East 250 288 8,900 960 Climbing Toronto Center
09:55AM 43.5000 -79.0333 90° East 250 288 9,900 1,020 Climbing Toronto Center
09:56AM 43.4833 -78.9500 105° East 260 299 11,000 960 Climbing Toronto Center
09:57AM 43.4667 -78.8500 103° East 260 299 11,900 900 Climbing Toronto Center
09:58AM 43.4667 -78.7333 90° East 270 311 12,900 900 Climbing Toronto Center
09:59AM 43.4500 -78.6500 105° East 270 311 13,800 840 Climbing Toronto Center
10:00AM 43.4478 -78.5989 93° East 262 302 14,300 900 Climbing Cleveland Center
10:01AM 43.4333 -78.4964 101° East 267 307 15,300 1,140 Climbing Cleveland Center
10:02AM 43.4211 -78.3967 100° East 267 307 16,600 1,200 Climbing Cleveland Center
10:03AM 43.4089 -78.2942 99° East 267 307 17,700 960 Climbing Cleveland Center
10:04AM 43.3942 -78.1892 101° East 273 314 18,600 900 Climbing Cleveland Center
10:05AM 43.3814 -78.0811 99° East 279 321 19,600 900 Climbing Cleveland Center
10:06AM 43.3667 -77.9731 101° East 279 321 20,500 660 Climbing Cleveland Center
10:07AM 43.3536 -77.8653 99° East 279 321 21,000 240 Climbing Cleveland Center
10:08AM 43.3383 -77.7517 100° East 285 328 21,000  Level Cleveland Center
10:10AM 43.3067 -77.5142 100° East 315 362 21,000  Level Boston Center
10:10AM 43.3000 -77.4333 96° East 320 368 21,000  Level Toronto Center
10:11AM 43.2667 -77.3167 111° Southeast 320 368 21,000  Level Toronto Center
10:12AM 43.2500 -77.2000 101° East 320 368 21,000  Level Toronto Center
10:13AM 43.2333 -77.1000 103° East 320 368 21,000  Level Toronto Center
10:14AM 43.2333 -76.9500 90° East 310 357 21,000  Level Toronto Center
10:15AM 43.2167 -76.8500 103° East 310 357 21,000  Level Toronto Center
10:16AM 43.2000 -76.7333 101° East 310 357 21,000  Level Toronto Center
10:17AM 43.1667 -76.6167 111° Southeast 310 357 21,000  Level Toronto Center
10:18AM 43.1500 -76.5000 101° East 300 345 21,000  Level Toronto Center
10:19AM 43.1500 -76.3833 90° East 300 345 21,000  Level Toronto Center
10:20AM 43.1442 -76.3447 102° East 305 351 21,000  Level Boston Center
10:21AM 43.1292 -76.2328 100° East 299 344 21,000  Level Boston Center
10:22AM 43.1122 -76.1150 101° East 299 344 21,000  Level Boston Center
10:23AM 43.0950 -76.0031 102° East 299 344 21,000 -300 Level Boston Center
10:24AM 43.0778 -75.8883 102° East 299 344 20,400 -1,020 Descending Boston Center
10:25AM 43.0583 -75.7678 102° East 304 350 19,000 -1,440 Descending Boston Center
10:26AM 43.0408 -75.6475 101° East 310 357 17,600 -1,440 Descending Boston Center
10:27AM 43.0214 -75.5303 103° East 315 362 16,200 -1,440 Descending Boston Center
10:28AM 43.0056 -75.4128 100° East 315 362 14,800 -1,500 Descending Boston Center
10:29AM 42.9878 -75.2983 102° East 315 362 13,300 -1,500 Descending Boston Center
10:30AM 42.9697 -75.1842 102° East 315 362 11,800 -1,200 Descending Boston Center
10:31AM 42.9514 -75.0725 103° East 315 362 11,000 -420 Descending Boston Center
10:32AM 42.9353 -74.9614 101° East 304 350 11,000  Level Boston Center
10:33AM 42.9186 -74.8558 102° East 299 344 11,000  Level Boston Center
10:34AM 42.8964 -74.7272 103° East 290 334 11,000  Level Boston Center
10:35AM 42.8836 -74.6361 101° East 293 337 11,000  Level Boston Center
10:36AM 42.8667 -74.5336 103° East 288 331 11,000 -180 Level Boston Center
10:37AM 42.8519 -74.4225 100° East 283 326 10,700 -900 Descending Boston Center
10:38AM 42.8478 -74.3064 93° East 300 345 9,200 -1,500 Descending Boston Center
10:39AM 42.8414 -74.1872 94° East 305 351 7,800 -1,440 Descending Boston Center
10:39AM 42.8397 -74.1617 95° East 309 356 7,400 -1,500 Descending Boston Center
10:40AM 42.8367 -74.0794 93° East 302 348 6,300 -1,500 Descending Boston Center
10:40AM 42.8372 -74.0483 89° East 300 345 5,900 -1,440 Descending Boston Center
10:41AM 42.8342 -73.9689 93° East 292 336 4,900 -1,320 Descending Boston Center
10:41AM 42.8322 -73.9406 95° East 282 325 4,600 -900 Descending Boston Center
10:42AM 42.8333 -73.8700 89° East 280 322 4,000 -600 Descending Boston Center
10:42AM 42.8294 -73.8442 102° East 243 280 4,000  Level Boston Center
10:43AM 42.8281 -73.7819 92° East 253 291 4,000 -120 Level Boston Center
10:43AM 42.8264 -73.7536 95° East 226 260 3,900 -720 Descending Boston Center
10:44AM 42.8208 -73.6911 97° East 240 276 3,300 -840 Descending Boston Center
10:44AM 42.8231 -73.6658 83° East 233 268 3,100 -300 Descending Boston Center
10:45AM 42.8175 -73.6147 98° East 229 264 3,000 -120 Descending Boston Center
10:45AM 42.8053 -73.5889 123° Southeast 216 249 3,000  Level Boston Center
10:46AM 42.7697 -73.5856 176° South 174 200 3,000 -120 Level Boston Center
10:46AM 42.7572 -73.5967 213° Southwest 174 200 2,900 -420 Descending Boston Center
10:48AM 42.7522 -73.6672 265° West 156 180 2,400 -660 Descending Boston Center
10:49AM 42.7517 -73.7239 269° West 144 166 1,500 -900 Descending Boston Center
10:50AM 42.7489 -73.7717 265° West 128 147 700 -840 Descending Boston Center